User: anonymous   Login
Location: Dompnac
(44.5644°N, 4.1026°E)
Time: 20:23:49
(UTC+00:00)
Language:

DMSP B5D2-2 - Orbit

View from above orbital plane
View from above orbital plane
View from above satellite
View from above satellite

Ground track
Ground track

The orbit data is extracted from the following two-line orbital elements,

1 14506U 83113A   20333.12067637  .00000061  00000-0  41163-4 0  9991
2 14506  98.3127 177.8848 0012371  99.0567  10.5016 14.28121060926321
Epoch (UTC): 28 November 2020 02:53:46
Eccentricity: 0.0012371
inclination: 98.3127°
perigee height: 789 km
apogee height: 807 km
right ascension of ascending node: 177.8848°
argument of perigee: 99.0567°
revolutions per day: 14.28121060
mean anomaly at epoch: 10.5016°
orbit number at epoch: 92632

The dashed part of the orbit path shows where the satellite is in the earth's shadow,  

DLR